カタログに戻る

FENGYUN 1C DEB

LostPO
NORAD 32364·DEBRIS·🇨🇳 China

打ち上げ May 10, 1999 から Taiyuan Satellite Launch Center

Loading…

次のパス (今後24時間)

TLE

古いSource: Space-Track

元期: Jul 14, 2026, 18:40 UTC

1 32364U 99025CZH 26195.77792772  .00001455  00000-0  70754-3 0  9995
2 32364  98.2660  25.1924 0120122 284.6241  74.1641 14.15971543667360

AllMySatでFENGYUN 1C DEBをリアルタイム追跡

Download on the App Store